Munising, MI

2:06 AM EDT on April 21, 2018 (GMT -0400)
Munising

Weather History for KP53 - February, 2014

Change the Weather History Date:

Monday, February 3, 2014

  Actual Average (KISQ) Record (KISQ)
Temperature  
Mean Temperature 6 °F -  
Max Temperature 21 °F 25 °F 42 °F (1991)
Min Temperature -9 °F 8 °F -16 °F (1963)
Degree Days  
Heating Degree Days 59    
Moisture  
Dew Point -4 °F    
Average Humidity 63    
Maximum Humidity 76    
Minimum Humidity 46    
Precipitation  
Precipitation 0.00 in - - ()
Sea Level Pressure  
Sea Level Pressure 30.26 in    
Wind  
Wind Speed 8 mph (SSW)    
Max Wind Speed 13 mph    
Max Gust Speed 18 mph    
Averages and records for this station are not official NWS values.
T = Trace of Precipitation, MM = Missing Value Source: NWS Daily Summary

Daily Weather History Graph

Daily Weather History Graph

Search for Another Location

Airport or City:

Astronomy

Feb. 03, 2014 Rise Set
Actual Time 8:07 AM EST 5:54 PM EST
Civil Twilight 7:35 AM EST 6:26 PM EST
Nautical Twilight 6:59 AM EST 7:02 PM EST
Astronomical Twilight 6:24 AM EST 7:37 PM EST
Moon 9:51 AM EST (2/3) 11:03 PM EST (2/3)
Length of Visible Light 10h 50m
Length of Day
9h 46m
Waxing Crescent, 19% of the Moon is Illuminated
Feb 3
Waxing Crescent
Feb 6
First Quarter
Feb 14
Full
Feb 22
Last Quarter
Mar 1
New

Hourly Weather History & Observations

Time (EST) Temp. Windchill Dew Point Humidity Pressure Visibility Wind Dir Wind Speed Gust Speed Precip Events Conditions
12:56 AM -5.1 °F -21.5 °F -11.0 °F 76% 30.25 in - South 9.2 mph - N/A   Unknown
1:56 AM -5.1 °F -21.5 °F -11.9 °F 72% 30.26 in - South 9.2 mph - N/A   Unknown
2:56 AM -7.1 °F -21.4 °F -14.1 °F 72% 30.27 in - South 6.9 mph - N/A   Unknown
3:56 AM -9.0 °F -23.8 °F -15.0 °F 75% 30.27 in - South 6.9 mph - N/A   Unknown
4:56 AM -9.0 °F -25.2 °F -16.1 °F 71% 30.26 in - South 8.1 mph - N/A   Unknown
5:56 AM -8.0 °F -23.9 °F -14.1 °F 75% 30.28 in - South 8.1 mph - N/A   Unknown
6:56 AM -9.9 °F -19.2 °F -16.1 °F 74% 30.28 in - South 3.5 mph - N/A   Unknown
7:56 AM -9.0 °F -23.8 °F -16.1 °F 71% 30.28 in - South 6.9 mph - N/A   Unknown
8:56 AM -8.0 °F -26.1 °F -14.1 °F 75% 30.28 in - South 10.4 mph - N/A   Unknown
9:56 AM 1.0 °F -14.0 °F -7.1 °F 69% 30.28 in - South 9.2 mph - N/A   Unknown
10:56 AM 14.0 °F 5.1 °F 1.0 °F 56% 30.29 in - SW 5.8 mph - N/A   Unknown
11:56 AM 17.1 °F 6.6 °F 1.0 °F 50% 30.29 in - West 8.1 mph - N/A   Unknown
12:56 PM 18.0 °F 11.1 °F 1.0 °F 48% 30.26 in - SSW 4.6 mph - N/A   Unknown
1:56 PM 19.9 °F 9.3 °F 3.0 °F 48% 30.24 in - SSW 9.2 mph - N/A   Unknown
2:56 PM 21.0 °F 10.6 °F 3.0 °F 46% 30.22 in - South 9.2 mph - N/A   Unknown
3:56 PM 21.9 °F 11.0 °F 3.9 °F 46% 30.23 in - South 10.4 mph - N/A   Unknown
4:56 PM 19.9 °F 8.6 °F 3.9 °F 50% 30.24 in - South 10.4 mph - N/A   Unknown
5:56 PM 17.1 °F 5.0 °F 1.9 °F 52% 30.24 in - South 10.4 mph - N/A   Unknown
6:56 PM 15.1 °F 1.8 °F 1.9 °F 56% 30.25 in - SSW 11.5 mph 18.4 mph N/A   Unknown
7:56 PM 14.0 °F -0.2 °F 1.9 °F 59% 30.24 in - SSW 12.7 mph - N/A   Unknown
8:56 PM 14.0 °F 0.5 °F 3.0 °F 62% 30.25 in - SSW 11.5 mph - N/A   Unknown
9:56 PM 12.9 °F 6.9 °F 3.9 °F 67% 30.28 in - Variable 3.5 mph - N/A   Unknown
10:56 PM 12.0 °F - 3.0 °F 67% 30.27 in - Calm Calm - N/A   Unknown
11:56 PM 12.9 °F 3.8 °F 3.9 °F 67% 30.29 in - South 5.8 mph - N/A   Unknown